Volver al catálogo

FENGYUN 1C DEB

ActivoPO
NORAD 32125·DEBRIS·🇨🇳 China

Lanzado May 10, 1999 desde Taiyuan Satellite Launch Center

Loading…

Próximos Pases (próximas 24 horas)

TLE

ActualizadoSource: Space-Track

Época: Sep 14, 2026, 06:18 UTC

1 32125U 99025CRT 26257.26292028  .00006446  00000-0  75284-3 0  9990
2 32125  99.0692 275.2258 0155334 184.8727 175.0977 14.77221299745825

Sigue FENGYUN 1C DEB en tiempo real con AllMySat

Download on the App Store